Charlottetown, Prince Edward Island

3:21 AM AST on December 03, 2016 (GMT -0400)
Charlottetown

Weather History for CYYG - November, 2013

Change the Weather History Date:

Saturday, November 16, 2013

  Actual Average Record
Temperature  
Mean Temperature 40 °F -  
Max Temperature 47 °F 39 °F 64 °F (2007)
Min Temperature 34 °F 29 °F 20 °F (2014)
Degree Days  
Heating Degree Days 24    
Moisture  
Dew Point 38 °F    
Average Humidity 91    
Maximum Humidity 100    
Minimum Humidity 63    
Precipitation  
Precipitation 0.00 in - - ()
Sea Level Pressure  
Sea Level Pressure 30.29 in    
Wind  
Wind Speed 4 mph ()    
Max Wind Speed 8 mph    
Max Gust Speed -    
Visibility 15.0 miles    
Events Fog    
Averages and records for this station are not official NWS values.
T = Trace of Precipitation, MM = Missing Value Source: Averaged Metar Reports

Daily Weather History Graph

Daily Weather History Graph

Search for Another Location

Airport or City:

Trip Planner

Search our weather history database for the weather conditions in past years. The results will help you decide how hot, cold, wet, or windy it might be!

Date:

Astronomy

Nov. 16, 2013 Rise Set
Actual Time 7:15 AM AST 4:38 PM AST
Civil Twilight 6:42 AM AST 5:11 PM AST
Nautical Twilight 6:06 AM AST 5:48 PM AST
Astronomical Twilight 5:30 AM AST 6:23 PM AST
Moon 4:13 PM AST (11/16) 6:04 AM AST (11/16)
Length of Visible Light 10h 28m
Length of Day
9h 23m
Waxing Gibbous, 99% of the Moon is Illuminated
Nov 16
Waxing Gibbous
Nov 17
Full
Nov 25
Last Quarter
Dec 2
New
Dec 9
First Quarter

Hourly Weather History & Observations

Time (AST) Temp. Windchill Dew Point Humidity Pressure Visibility Wind Dir Wind Speed Gust Speed Precip Events Conditions
12:00 AM 39.2 °F 34.2 °F 37.4 °F 93% 30.18 in 15.0 mi SW 6.9 mph - N/A   Partly Cloudy
1:00 AM 37.4 °F 32.8 °F 37.4 °F 100% 30.18 in 15.0 mi SW 5.8 mph - N/A   Partly Cloudy
2:00 AM 40 °F - 39 °F 97% 30.20 in 15 mi WSW 8.1 mph - -   Clear
2:00 AM 41.0 °F 35.8 °F 39.2 °F 93% 30.19 in 15.0 mi WSW 8.1 mph - N/A   Scattered Clouds
3:00 AM 39.2 °F 34.2 °F 39.2 °F 100% 30.21 in 15.0 mi WSW 6.9 mph - N/A   Scattered Clouds
4:00 AM 37.4 °F 32.8 °F 37.4 °F 100% 30.23 in 15.0 mi SW 5.8 mph - N/A   Mostly Cloudy
4:50 AM 35.6 °F 32.8 °F 35.6 °F 100% 30.25 in 15.0 mi WSW 3.5 mph - N/A   Overcast
5:00 AM 37.4 °F - 35.6 °F 93% 30.25 in 15.0 mi West 2.3 mph - N/A   Overcast
6:00 AM 33.8 °F - 33.8 °F 100% 30.26 in 15.0 mi Calm Calm - N/A   Overcast
7:00 AM 35.6 °F 32.8 °F 35.6 °F 100% 30.27 in 15.0 mi South 3.5 mph - N/A Fog Shallow Fog
8:00 AM 36 °F - 36 °F 100% 30.30 in 15 mi South 5.8 mph - -   Clear
8:00 AM 35.6 °F 30.7 °F 35.6 °F 100% 30.30 in 15.0 mi South 5.8 mph - N/A   Mostly Cloudy
9:00 AM 37.4 °F - 37.4 °F 100% 30.30 in 15.0 mi Calm Calm - N/A   Mostly Cloudy
10:00 AM 42.8 °F - 39.2 °F 87% 30.32 in 15.0 mi Calm Calm - N/A   Mostly Cloudy
11:00 AM 46.4 °F 45.2 °F 37.4 °F 71% 30.32 in 15.0 mi East 3.5 mph - N/A   Mostly Cloudy
12:00 PM 46.4 °F 45.2 °F 35.6 °F 66% 30.31 in 15.0 mi South 3.5 mph - N/A   Mostly Cloudy
1:00 PM 46.4 °F - 37.4 °F 71% 30.32 in 15.0 mi Calm Calm - N/A   Mostly Cloudy
2:00 PM 47 °F - 38 °F 63% 30.31 in 15 mi South 1.2 mph - -   Clear
2:00 PM 46.4 °F - 37.4 °F 71% 30.31 in 15.0 mi Calm Calm - N/A   Mostly Cloudy
3:00 PM 46.4 °F 45.2 °F 39.2 °F 76% 30.32 in 15.0 mi ENE 3.5 mph - N/A   Mostly Cloudy
4:00 PM 42.8 °F 40.1 °F 39.2 °F 87% 30.33 in 15.0 mi North 4.6 mph - N/A   Mostly Cloudy
5:00 PM 41.0 °F 37.1 °F 37.4 °F 87% 30.33 in 15.0 mi NNE 5.8 mph - N/A   Overcast
6:00 PM 39.2 °F 37.0 °F 39.2 °F 100% 30.34 in 15.0 mi North 3.5 mph - N/A   Mostly Cloudy
7:00 PM 39.2 °F - 39.2 °F 100% 30.35 in 15.0 mi NW 2.3 mph - N/A   Overcast
8:00 PM 40 °F - 40 °F 99% 30.35 in 15 mi Calm Calm - -   Overcast
8:00 PM 41.0 °F 39.0 °F 39.2 °F 93% 30.35 in 15.0 mi East 3.5 mph - N/A   Overcast
9:00 PM 39.2 °F - 39.2 °F 100% 30.35 in 15.0 mi Calm Calm - N/A   Overcast
10:00 PM 41.0 °F 38.0 °F 39.2 °F 93% 30.35 in 15.0 mi WNW 4.6 mph - N/A   Mostly Cloudy
11:00 PM 37.4 °F 34.9 °F 37.4 °F 100% 30.34 in 15.0 mi North 3.5 mph - N/A   Mostly Cloudy